Météo par heure à Kispalád

Ce jour, 6 Mars, Samedi

Heure Température Précipitation Vent Pression Humidité
00:00 -4°C° 0 mm 5 m/s 754 mmHg 86%
01:00 -4°C° 0 mm 5 m/s 755 mmHg 86%
02:00 -4°C° 0 mm 5 m/s 755 mmHg 87%
03:00 -4°C° 0 mm 5 m/s 756 mmHg 86%
04:00 -4°C° 0 mm 5 m/s 756 mmHg 86%
05:00 -4°C° 0 mm 5 m/s 757 mmHg 86%
06:00 -4°C° 0 mm 5 m/s 757 mmHg 87%
07:00 -3°C° 0 mm 4 m/s 758 mmHg 87%
08:00 -2°C° 0 mm 3 m/s 759 mmHg 90%
09:00 -1°C° 0 mm 3 m/s 759 mmHg 84%
10:00 0°C° 0 mm 3 m/s 760 mmHg 82%
11:00 0°C° 0 mm 4 m/s 760 mmHg 78%
12:00 +1°C° 0 mm 4 m/s 760 mmHg 73%
13:00 +3°C° 0 mm 4 m/s 761 mmHg 70%
14:00 +3°C° 0 mm 3 m/s 761 mmHg 69%
15:00 +3°C° 0.3 mm 2 m/s 761 mmHg 80%
16:00 +3°C° 0 mm 4 m/s 760 mmHg 63%
17:00 +1°C° 0 mm 5 m/s 761 mmHg 83%
18:00 0°C° 0 mm 4 m/s 761 mmHg 72%
19:00 0°C° 0 mm 3 m/s 761 mmHg 84%
20:00 -1°C° 0 mm 2 m/s 761 mmHg 88%
21:00 -2°C° 0 mm 2 m/s 761 mmHg 89%
22:00 0°C° 0 mm 1 m/s 761 mmHg 83%
23:00 0°C° 0 mm 1 m/s 762 mmHg 84%

Demain, 7 Mars, Dimanche

Heure Température Précipitation Vent Pression Humidité
00:00 0°C° 0 mm 1 m/s 762 mmHg 86%
01:00 0°C° 0 mm 1 m/s 761 mmHg 89%
02:00 -2°C° 0 mm 2 m/s 761 mmHg 93%
03:00 -2°C° 0 mm 2 m/s 761 mmHg 96%
04:00 -2°C° 0 mm 2 m/s 761 mmHg 97%
05:00 -2°C° 0 mm 2 m/s 760 mmHg 97%
06:00 -2°C° 0 mm 3 m/s 760 mmHg 97%
07:00 -2°C° 0 mm 3 m/s 760 mmHg 96%
08:00 -2°C° 0 mm 3 m/s 760 mmHg 95%
09:00 -2°C° 0 mm 4 m/s 760 mmHg 93%
10:00 0°C° 0 mm 5 m/s 760 mmHg 90%
11:00 +2°C° 0 mm 5 m/s 759 mmHg 86%
12:00 +3°C° 0 mm 5 m/s 759 mmHg 80%
13:00 +3°C° 0 mm 5 m/s 758 mmHg 80%
14:00 +3°C° 0 mm 5 m/s 758 mmHg 78%
15:00 +3°C° 0 mm 5 m/s 757 mmHg 76%
16:00 +4°C° 0 mm 6 m/s 756 mmHg 74%
17:00 +3°C° 0 mm 5 m/s 756 mmHg 77%
18:00 +3°C° 0 mm 4 m/s 755 mmHg 80%
19:00 +2°C° 0 mm 3 m/s 755 mmHg 88%
20:00 +1°C° 0 mm 3 m/s 755 mmHg 93%
21:00 0°C° 0 mm 3 m/s 755 mmHg 96%
22:00 0°C° 0 mm 3 m/s 754 mmHg 97%
23:00 -1°C° 0 mm 3 m/s 754 mmHg 98%

Après-demain, 8 Mars, Lundi

Heure Température Précipitation Vent Pression Humidité
00:00 -1°C° 0 mm 3 m/s 754 mmHg 98%
01:00 -1°C° 0 mm 3 m/s 754 mmHg 99%
02:00 -1°C° 0 mm 3 m/s 753 mmHg 98%
03:00 -1°C° 0 mm 3 m/s 753 mmHg 98%
04:00 -1°C° 0 mm 3 m/s 752 mmHg 97%
05:00 -1°C° 0 mm 3 m/s 752 mmHg 97%
06:00 -1°C° 0 mm 3 m/s 751 mmHg 97%
07:00 +1°C° 0 mm 1 m/s 752 mmHg 98%
08:00 +1°C° 0.4 mm 1 m/s 752 mmHg 100%
09:00 +1°C° 0.1 mm 2 m/s 752 mmHg 99%
10:00 +1°C° 0 mm 3 m/s 752 mmHg 97%
11:00 +3°C° 0 mm 2 m/s 752 mmHg 96%
12:00 +5°C° 0 mm 1 m/s 752 mmHg 90%
13:00 +5°C° 0.2 mm 2 m/s 752 mmHg 88%
14:00 +6°C° 0 mm 2 m/s 752 mmHg 79%
15:00 +5°C° 0 mm 3 m/s 751 mmHg 82%
16:00 +5°C° 0 mm 4 m/s 751 mmHg 73%
17:00 +5°C° 0 mm 4 m/s 751 mmHg 76%
18:00 +2°C° 0.4 mm 3 m/s 751 mmHg 97%
19:00 +2°C° 0.7 mm 2 m/s 752 mmHg 96%
20:00 +1°C° 0 mm 3 m/s 752 mmHg 96%
21:00 -1°C° 0 mm 4 m/s 753 mmHg 91%
22:00 -1°C° 0 mm 3 m/s 753 mmHg 88%
23:00 -2°C° 0 mm 3 m/s 753 mmHg 88%

9 Mars, Mardi

Heure Température Précipitation Vent Pression Humidité
00:00 -2°C° 0 mm 2 m/s 754 mmHg 87%
01:00 -2°C° 0 mm 2 m/s 754 mmHg 88%
02:00 -2°C° 0 mm 2 m/s 754 mmHg 90%
03:00 -2°C° 0 mm 2 m/s 754 mmHg 92%
04:00 -2°C° 0 mm 2 m/s 754 mmHg 91%
05:00 -2°C° 0 mm 2 m/s 754 mmHg 91%
06:00 -2°C° 0 mm 2 m/s 754 mmHg 90%
07:00 -2°C° 0 mm 2 m/s 755 mmHg 90%
08:00 -2°C° 0 mm 2 m/s 755 mmHg 89%
09:00 -1°C° 0 mm 3 m/s 755 mmHg 81%
10:00 +1°C° 0 mm 2 m/s 756 mmHg 74%
11:00 +2°C° 0 mm 2 m/s 756 mmHg 71%
12:00 +3°C° 0 mm 2 m/s 756 mmHg 68%
13:00 +5°C° 0 mm 1 m/s 756 mmHg 66%
14:00 +5°C° 0 mm 1 m/s 756 mmHg 65%
15:00 +5°C° 0 mm 1 m/s 756 mmHg 64%
16:00 +4°C° 0 mm 2 m/s 755 mmHg 68%
17:00 +4°C° 0 mm 2 m/s 755 mmHg 67%
18:00 +3°C° 0 mm 2 m/s 755 mmHg 79%
19:00 +2°C° 0 mm 2 m/s 756 mmHg 87%
20:00 +1°C° 0 mm 2 m/s 756 mmHg 90%
21:00 +1°C° 0 mm 2 m/s 756 mmHg 89%
22:00 -1°C° 0 mm 2 m/s 756 mmHg 93%
23:00 -1°C° 0 mm 2 m/s 757 mmHg 91%

10 Mars, Mercredi

Heure Température Précipitation Vent Pression Humidité
00:00 -1°C° 0 mm 2 m/s 757 mmHg 91%
01:00 0°C° 0 mm 1 m/s 756 mmHg 93%
02:00 0°C° 0 mm 1 m/s 757 mmHg 93%
03:00 0°C° 0 mm 1 m/s 757 mmHg 92%
04:00 0°C° 0 mm 1 m/s 756 mmHg 94%
05:00 0°C° 0 mm 1 m/s 757 mmHg 94%
06:00 0°C° 0 mm 1 m/s 757 mmHg 94%
07:00 0°C° 0 mm 1 m/s 757 mmHg 95%
08:00 -1°C° 0 mm 0 m/s 757 mmHg 92%
09:00 0°C° 0 mm 0 m/s 757 mmHg 95%
10:00 +2°C° 0 mm 0 m/s 757 mmHg 82%
11:00 +4°C° 0 mm 1 m/s 757 mmHg 70%
12:00 +4°C° 0 mm 2 m/s 757 mmHg 73%
13:00 +4°C° 0 mm 3 m/s 757 mmHg 77%
14:00 +5°C° 0 mm 4 m/s 757 mmHg 80%
15:00 +5°C° 0 mm 4 m/s 756 mmHg 82%
16:00 +5°C° 0.3 mm 4 m/s 756 mmHg 88%
17:00 +5°C° 0.1 mm 5 m/s 755 mmHg 86%
18:00 +3°C° 0 mm 5 m/s 755 mmHg 89%
19:00 +3°C° 0 mm 4 m/s 755 mmHg 94%
20:00 +3°C° 0 mm 4 m/s 755 mmHg 94%
21:00 +1°C° 0 mm 4 m/s 755 mmHg 94%
22:00 +1°C° 0 mm 4 m/s 754 mmHg 94%
23:00 +1°C° 0 mm 4 m/s 754 mmHg 95%

11 Mars, Jeudi

Heure Température Précipitation Vent Pression Humidité
00:00 0°C° 0 mm 4 m/s 754 mmHg 96%
01:00 0°C° 0 mm 4 m/s 754 mmHg 96%
02:00 0°C° 0 mm 4 m/s 753 mmHg 97%
03:00 0°C° 0 mm 4 m/s 753 mmHg 97%
04:00 0°C° 0 mm 5 m/s 752 mmHg 96%
05:00 0°C° 0 mm 5 m/s 752 mmHg 95%
06:00 0°C° 0 mm 5 m/s 751 mmHg 92%
07:00 -1°C° 0 mm 6 m/s 751 mmHg 90%
08:00 -1°C° 0.7 mm 5 m/s 751 mmHg 97%
09:00 -2°C° 1.5 mm 6 m/s 750 mmHg 98%
10:00 -1°C° 1.6 mm 6 m/s 750 mmHg 98%
11:00 +1°C° 1.3 mm 6 m/s 750 mmHg 98%
12:00 +1°C° 0.8 mm 6 m/s 750 mmHg 97%
13:00 +2°C° 0.9 mm 6 m/s 749 mmHg 97%
14:00 +4°C° 0.4 mm 6 m/s 748 mmHg 96%
15:00 +7°C° 0 mm 6 m/s 748 mmHg 93%
16:00 +8°C° 0 mm 6 m/s 747 mmHg 93%
17:00 +8°C° 0 mm 7 m/s 747 mmHg 93%
18:00 +8°C° 0 mm 6 m/s 747 mmHg 94%
19:00 +6°C° 0 mm 7 m/s 747 mmHg 94%
20:00 +6°C° 0 mm 7 m/s 747 mmHg 95%
21:00 +6°C° 0 mm 7 m/s 747 mmHg 96%
22:00 +6°C° 0 mm 7 m/s 747 mmHg 96%
23:00 +6°C° 0 mm 7 m/s 747 mmHg 96%
Voir plus

Nous avons besoin de votre consentement

Meteoprog et ses fournisseurs de services peuvent stocker et accéder à des données personnelles telles que des cookies, des identifiants d'appareils ou d'autres technologies similaires sur votre appareil et traiter ces données pour personnaliser le contenu et les publicités, ainsi que pour fournir des fonctionnalités de médias sociaux et analyser le trafic.

  • Stocker et/ou accéder à des informations sur votre appareil

    Des cookies, des identifiants d'appareils ou d'autres informations peuvent être stockés ou accessibles sur votre appareil aux fins indiquées ci-dessus.

  • Annonces et contenus personnalisés, mesure des annonces et des contenus, connaissance de l'audience et développement de produits

    Les annonces et le contenu peuvent être personnalisés en fonction d'un profil. D'autres données peuvent être ajoutées pour mieux personnaliser les annonces et le contenu. Les performances des publicités et du contenu peuvent être mesurées. Il est possible d'obtenir des informations sur le public qui a vu les publicités et le contenu. Ces données peuvent être utilisées pour développer ou améliorer l'expérience de l'utilisateur, les systèmes et les logiciels.

En cliquant sur "J'accepte", vous autorisez l'utilisation de cookies, des identifiants d'appareils, des balises web ou d'autres technologies similaires. Vos paramètres peuvent être modifiés dans le navigateur de votre appareil.

Dans certains cas, des intérêts légitimes peuvent être invoqués plutôt qu'un consentement. Vous pouvez en savoir plus à ce sujet dans notre Politique de confidentialité et de cookies.